Year,Month,Day,Hour,Minute,Value (Times are PST for temperature in C)
2020,07,26,00,00,14.30
2020,07,26,00,01,14.30
2020,07,26,00,02,14.30
2020,07,26,00,03,14.30
2020,07,26,00,04,14.30
2020,07,26,00,05,14.20
2020,07,26,00,06,14.20
2020,07,26,00,07,14.20
2020,07,26,00,08,14.20
2020,07,26,00,09,14.20
2020,07,26,00,10,14.20
2020,07,26,00,11,14.20
2020,07,26,00,12,14.20
2020,07,26,00,13,14.20
2020,07,26,00,14,14.20
2020,07,26,00,15,14.20
2020,07,26,00,16,14.20
2020,07,26,00,17,14.20
2020,07,26,00,18,14.20
2020,07,26,00,19,14.30
2020,07,26,00,20,14.30
2020,07,26,00,21,14.30
2020,07,26,00,22,14.30
2020,07,26,00,23,14.30
2020,07,26,00,24,14.40
2020,07,26,00,25,14.40
2020,07,26,00,26,14.40
2020,07,26,00,27,14.40
2020,07,26,00,28,14.40
2020,07,26,00,29,14.40
2020,07,26,00,30,14.40
2020,07,26,00,31,14.40
2020,07,26,00,32,14.40
2020,07,26,00,33,14.40
2020,07,26,00,34,14.40
2020,07,26,00,35,14.30
2020,07,26,00,36,14.30
2020,07,26,00,37,14.30
2020,07,26,00,38,14.30
2020,07,26,00,39,14.30
2020,07,26,00,40,14.30
2020,07,26,00,41,14.30
2020,07,26,00,42,14.30
2020,07,26,00,43,14.30
2020,07,26,00,44,14.30
2020,07,26,00,45,14.30
2020,07,26,00,46,14.30
2020,07,26,00,47,14.30
2020,07,26,00,48,14.20
2020,07,26,00,49,14.20
2020,07,26,00,50,14.20
2020,07,26,00,51,14.30
2020,07,26,00,52,14.30
2020,07,26,00,53,14.30
2020,07,26,00,54,14.30
2020,07,26,00,55,14.30
2020,07,26,00,56,14.30
2020,07,26,00,57,14.30
2020,07,26,00,58,14.20
2020,07,26,00,59,14.20
2020,07,26,01,00,14.20
2020,07,26,01,01,14.20
2020,07,26,01,02,14.20
2020,07,26,01,03,14.10
2020,07,26,01,04,14.10
2020,07,26,01,05,14.10
2020,07,26,01,06,14.10
2020,07,26,01,07,14.00
2020,07,26,01,08,14.00
2020,07,26,01,09,13.90
2020,07,26,01,10,13.90
2020,07,26,01,11,13.90
2020,07,26,01,12,13.90
2020,07,26,01,13,13.90
2020,07,26,01,14,13.90
2020,07,26,01,15,14.00
2020,07,26,01,16,14.00
2020,07,26,01,17,14.00
2020,07,26,01,18,14.10
2020,07,26,01,19,14.10
2020,07,26,01,20,14.20
2020,07,26,01,21,14.20
2020,07,26,01,22,14.30
2020,07,26,01,23,14.30
2020,07,26,01,24,14.30
2020,07,26,01,25,14.40
2020,07,26,01,26,14.40
2020,07,26,01,27,14.50
2020,07,26,01,28,14.50
2020,07,26,01,29,14.50
2020,07,26,01,30,14.50
2020,07,26,01,31,14.50
2020,07,26,01,32,14.50
2020,07,26,01,33,14.50
2020,07,26,01,34,14.50
2020,07,26,01,35,14.50
2020,07,26,01,36,14.50
2020,07,26,01,37,14.40
2020,07,26,01,38,14.40
2020,07,26,01,39,14.40
2020,07,26,01,40,14.40
2020,07,26,01,41,14.40
2020,07,26,01,42,14.30
2020,07,26,01,43,14.30
2020,07,26,01,44,14.40
2020,07,26,01,45,14.40
2020,07,26,01,46,14.40
2020,07,26,01,47,14.40
2020,07,26,01,48,14.40
2020,07,26,01,49,14.40
2020,07,26,01,50,14.30
2020,07,26,01,51,14.30
2020,07,26,01,52,14.30
2020,07,26,01,53,14.30
2020,07,26,01,54,14.30
2020,07,26,01,55,14.30
2020,07,26,01,56,14.30
2020,07,26,01,57,14.30
2020,07,26,01,58,14.30
2020,07,26,01,59,14.30
2020,07,26,02,00,14.30
2020,07,26,02,01,14.20
2020,07,26,02,02,14.20
2020,07,26,02,03,14.20
2020,07,26,02,04,14.20
2020,07,26,02,05,14.10
2020,07,26,02,06,14.10
2020,07,26,02,07,14.10
2020,07,26,02,08,14.10
2020,07,26,02,09,14.00
2020,07,26,02,10,14.00
2020,07,26,02,11,14.00
2020,07,26,02,12,13.90
2020,07,26,02,13,13.90
2020,07,26,02,14,13.90
2020,07,26,02,15,13.90
2020,07,26,02,16,13.90
2020,07,26,02,17,13.90
2020,07,26,02,18,13.90
2020,07,26,02,19,13.90
2020,07,26,02,20,13.90
2020,07,26,02,21,13.90
2020,07,26,02,22,13.80
2020,07,26,02,23,13.80
2020,07,26,02,24,13.80
2020,07,26,02,25,13.70
2020,07,26,02,26,13.70
2020,07,26,02,27,13.70
2020,07,26,02,28,13.70
2020,07,26,02,29,13.60
2020,07,26,02,30,13.60
2020,07,26,02,31,13.60
2020,07,26,02,32,13.50
2020,07,26,02,33,13.50
2020,07,26,02,34,13.50
2020,07,26,02,35,13.40
2020,07,26,02,36,13.40
2020,07,26,02,37,13.40
2020,07,26,02,38,13.40
2020,07,26,02,39,13.30
2020,07,26,02,40,13.30
2020,07,26,02,41,13.30
2020,07,26,02,42,13.30
2020,07,26,02,43,13.30
2020,07,26,02,44,13.30
2020,07,26,02,45,13.30
2020,07,26,02,46,13.20
2020,07,26,02,47,13.20
2020,07,26,02,48,13.20
2020,07,26,02,49,13.20
2020,07,26,02,50,13.20
2020,07,26,02,51,13.20
2020,07,26,02,52,13.10
2020,07,26,02,53,13.10
2020,07,26,02,54,13.10
2020,07,26,02,55,13.10
2020,07,26,02,56,13.10
2020,07,26,02,57,13.00
2020,07,26,02,58,13.00
2020,07,26,02,59,13.00
2020,07,26,03,00,13.00
2020,07,26,03,01,12.90
2020,07,26,03,02,12.90
2020,07,26,03,03,12.90
2020,07,26,03,04,12.90
2020,07,26,03,05,12.90
2020,07,26,03,06,12.90
2020,07,26,03,07,12.90
2020,07,26,03,08,12.90
2020,07,26,03,09,12.90
2020,07,26,03,10,12.90
2020,07,26,03,11,12.90
2020,07,26,03,12,12.90
2020,07,26,03,13,12.90
2020,07,26,03,14,12.90
2020,07,26,03,15,12.90
2020,07,26,03,16,13.00
2020,07,26,03,17,13.00
2020,07,26,03,18,13.00
2020,07,26,03,19,13.00
2020,07,26,03,20,13.00
2020,07,26,03,21,13.10
2020,07,26,03,22,13.10
2020,07,26,03,23,13.10
2020,07,26,03,24,13.10
2020,07,26,03,25,13.10
2020,07,26,03,26,13.10
2020,07,26,03,27,13.10
2020,07,26,03,28,13.10
2020,07,26,03,29,13.10
2020,07,26,03,30,13.10
2020,07,26,03,31,13.10
2020,07,26,03,32,13.10
2020,07,26,03,33,13.10
2020,07,26,03,34,13.10
2020,07,26,03,35,13.10
2020,07,26,03,36,13.10
2020,07,26,03,37,13.00
2020,07,26,03,38,13.00
2020,07,26,03,39,13.00
2020,07,26,03,40,13.00
2020,07,26,03,41,13.00
2020,07,26,03,42,13.00
2020,07,26,03,43,12.90
2020,07,26,03,44,12.90
2020,07,26,03,45,12.90
2020,07,26,03,46,12.90
2020,07,26,03,47,12.90
2020,07,26,03,48,12.90
2020,07,26,03,49,12.90
2020,07,26,03,50,12.90
2020,07,26,03,51,12.90
2020,07,26,03,52,12.90
2020,07,26,03,53,12.90
2020,07,26,03,54,12.90
2020,07,26,03,55,12.90
2020,07,26,03,56,12.90
2020,07,26,03,57,12.90
2020,07,26,03,58,12.90
2020,07,26,03,59,12.90
2020,07,26,04,00,12.90
2020,07,26,04,01,12.90
2020,07,26,04,02,12.90
2020,07,26,04,03,12.90
2020,07,26,04,04,12.90
2020,07,26,04,05,12.90
2020,07,26,04,06,12.90
2020,07,26,04,07,12.90
2020,07,26,04,08,12.90
2020,07,26,04,09,12.90
2020,07,26,04,10,12.90
2020,07,26,04,11,12.90
2020,07,26,04,12,12.90
2020,07,26,04,13,12.90
2020,07,26,04,14,12.90
2020,07,26,04,15,12.90
2020,07,26,04,16,12.90
2020,07,26,04,17,12.90
2020,07,26,04,18,12.90
2020,07,26,04,19,12.80
2020,07,26,04,20,12.80
2020,07,26,04,21,12.80
2020,07,26,04,22,12.80
2020,07,26,04,23,12.90
2020,07,26,04,24,12.90
2020,07,26,04,25,12.90
2020,07,26,04,26,12.90
2020,07,26,04,27,12.90
2020,07,26,04,28,12.90
2020,07,26,04,29,12.90
2020,07,26,04,30,12.90
2020,07,26,04,31,12.90
2020,07,26,04,32,12.90
2020,07,26,04,33,12.90
2020,07,26,04,34,12.90
2020,07,26,04,35,12.90
2020,07,26,04,36,12.90
2020,07,26,04,37,12.90
2020,07,26,04,38,12.90
2020,07,26,04,39,12.90
2020,07,26,04,40,12.90
2020,07,26,04,41,12.90
2020,07,26,04,42,12.90
2020,07,26,04,43,12.90
2020,07,26,04,44,12.90
2020,07,26,04,45,12.90
2020,07,26,04,46,12.90
2020,07,26,04,47,12.90
2020,07,26,04,48,13.00
2020,07,26,04,49,13.00
2020,07,26,04,50,13.00
2020,07,26,04,51,13.00
2020,07,26,04,52,13.00
2020,07,26,04,53,13.00
2020,07,26,04,54,13.00
2020,07,26,04,55,13.00
2020,07,26,04,56,13.00
2020,07,26,04,57,13.00
2020,07,26,04,58,12.90
2020,07,26,04,59,12.90
2020,07,26,05,00,12.90
2020,07,26,05,01,12.90
2020,07,26,05,02,12.90
2020,07,26,05,03,12.90
2020,07,26,05,04,12.90
2020,07,26,05,05,12.90
2020,07,26,05,06,12.80
2020,07,26,05,07,12.80
2020,07,26,05,08,12.80
2020,07,26,05,09,12.80
2020,07,26,05,10,12.80
2020,07,26,05,11,12.70
2020,07,26,05,12,12.70
2020,07,26,05,13,12.70
2020,07,26,05,14,12.70
2020,07,26,05,15,12.70
2020,07,26,05,16,12.70
2020,07,26,05,17,12.70
2020,07,26,05,18,12.70
2020,07,26,05,19,12.70
2020,07,26,05,20,12.80
2020,07,26,05,21,12.80
2020,07,26,05,22,12.90
2020,07,26,05,23,12.90
2020,07,26,05,24,13.00
2020,07,26,05,25,13.10
2020,07,26,05,26,13.10
2020,07,26,05,27,13.20
2020,07,26,05,28,13.20
2020,07,26,05,29,13.20
2020,07,26,05,30,13.20
2020,07,26,05,31,13.20
2020,07,26,05,32,13.20
2020,07,26,05,33,13.20
2020,07,26,05,34,13.20
2020,07,26,05,35,13.20
2020,07,26,05,36,13.30
2020,07,26,05,37,13.30
2020,07,26,05,38,13.30
2020,07,26,05,39,13.30
2020,07,26,05,40,13.30
2020,07,26,05,41,13.30
2020,07,26,05,42,13.40
2020,07,26,05,43,13.40
2020,07,26,05,44,13.40
2020,07,26,05,45,13.40
2020,07,26,05,46,13.40
2020,07,26,05,47,13.40
2020,07,26,05,48,13.40
2020,07,26,05,49,13.40
2020,07,26,05,50,13.50
2020,07,26,05,51,13.50
2020,07,26,05,52,13.50
2020,07,26,05,53,13.60
2020,07,26,05,54,13.60
2020,07,26,05,55,13.50
2020,07,26,05,56,13.50
2020,07,26,05,57,13.60
2020,07,26,05,58,13.50
2020,07,26,05,59,13.50
2020,07,26,06,00,13.50
2020,07,26,06,01,13.40
2020,07,26,06,02,13.40
2020,07,26,06,03,13.40
2020,07,26,06,04,13.30
2020,07,26,06,05,13.30
2020,07,26,06,06,13.30
2020,07,26,06,07,13.20
2020,07,26,06,08,13.20
2020,07,26,06,09,13.20
2020,07,26,06,10,13.10
2020,07,26,06,11,13.10
2020,07,26,06,12,13.10
2020,07,26,06,13,13.00
2020,07,26,06,14,13.00
2020,07,26,06,15,12.90
2020,07,26,06,16,12.90
2020,07,26,06,17,12.90
2020,07,26,06,18,12.90
2020,07,26,06,19,12.90
2020,07,26,06,20,12.90
2020,07,26,06,21,12.90
2020,07,26,06,22,12.80
2020,07,26,06,23,12.80
2020,07,26,06,24,12.80
2020,07,26,06,25,12.80
2020,07,26,06,26,12.80
2020,07,26,06,27,12.80
2020,07,26,06,28,12.70
2020,07,26,06,29,12.80
2020,07,26,06,30,12.80
2020,07,26,06,31,12.80
2020,07,26,06,32,12.80
2020,07,26,06,33,12.80
2020,07,26,06,34,12.80
2020,07,26,06,35,12.80
2020,07,26,06,36,12.80
2020,07,26,06,37,12.80
2020,07,26,06,38,12.80
2020,07,26,06,39,12.80
2020,07,26,06,40,12.80
2020,07,26,06,41,12.80
2020,07,26,06,42,12.80
2020,07,26,06,43,12.80
2020,07,26,06,44,12.80
2020,07,26,06,45,12.80
2020,07,26,06,46,12.80
2020,07,26,06,47,12.90
2020,07,26,06,48,12.90
2020,07,26,06,49,13.00
2020,07,26,06,50,13.00
2020,07,26,06,51,13.10
2020,07,26,06,52,13.10
2020,07,26,06,53,13.10
2020,07,26,06,54,13.20
2020,07,26,06,55,13.20
2020,07,26,06,56,13.20
2020,07,26,06,57,13.20
2020,07,26,06,58,13.20
2020,07,26,06,59,13.30
2020,07,26,07,00,13.30
2020,07,26,07,01,13.30
2020,07,26,07,02,13.30
2020,07,26,07,03,13.40
2020,07,26,07,04,13.40
2020,07,26,07,05,13.50
2020,07,26,07,06,13.50
2020,07,26,07,07,13.60
2020,07,26,07,08,13.60
2020,07,26,07,09,13.70
2020,07,26,07,10,13.80
2020,07,26,07,11,13.80
2020,07,26,07,12,13.90
2020,07,26,07,13,14.00
2020,07,26,07,14,14.10
2020,07,26,07,15,14.20
2020,07,26,07,16,14.20
2020,07,26,07,17,14.30
2020,07,26,07,18,14.40
2020,07,26,07,19,14.40
2020,07,26,07,20,14.60
2020,07,26,07,21,14.70
2020,07,26,07,22,14.80
2020,07,26,07,23,15.00
2020,07,26,07,24,15.20
2020,07,26,07,25,15.40
2020,07,26,07,26,15.50
2020,07,26,07,27,15.80
2020,07,26,07,28,15.90
2020,07,26,07,29,16.10
2020,07,26,07,30,16.30
2020,07,26,07,31,16.50
2020,07,26,07,32,16.70
2020,07,26,07,33,16.80
2020,07,26,07,34,16.90
2020,07,26,07,35,17.10
2020,07,26,07,36,17.20
2020,07,26,07,37,17.30
2020,07,26,07,38,17.40
2020,07,26,07,39,17.50
2020,07,26,07,40,17.70
2020,07,26,07,41,17.80
2020,07,26,07,42,17.90
2020,07,26,07,43,18.00
2020,07,26,07,44,18.10
2020,07,26,07,45,18.20
2020,07,26,07,46,18.20
2020,07,26,07,47,18.30
2020,07,26,07,48,18.40
2020,07,26,07,49,18.50
2020,07,26,07,50,18.60
2020,07,26,07,51,18.70
2020,07,26,07,52,18.80
2020,07,26,07,53,18.80
2020,07,26,07,54,18.90
2020,07,26,07,55,19.00
2020,07,26,07,56,19.10
2020,07,26,07,57,19.20
2020,07,26,07,58,19.20
2020,07,26,07,59,19.20
2020,07,26,08,00,19.30
2020,07,26,08,01,19.30
2020,07,26,08,02,19.40
2020,07,26,08,03,19.40
2020,07,26,08,04,19.40
2020,07,26,08,05,19.50
2020,07,26,08,06,19.50
2020,07,26,08,07,19.60
2020,07,26,08,08,19.70
2020,07,26,08,09,19.70
2020,07,26,08,10,19.80
2020,07,26,08,11,19.80
2020,07,26,08,12,19.90
2020,07,26,08,13,19.90
2020,07,26,08,14,19.90
2020,07,26,08,15,20.00
2020,07,26,08,16,20.00
2020,07,26,08,17,20.00
2020,07,26,08,18,20.00
2020,07,26,08,19,20.10
2020,07,26,08,20,20.10
2020,07,26,08,21,20.10
2020,07,26,08,22,20.10
2020,07,26,08,23,20.10
2020,07,26,08,24,20.20
2020,07,26,08,25,20.20
2020,07,26,08,26,20.20
2020,07,26,08,27,20.20
2020,07,26,08,28,20.20
2020,07,26,08,29,20.20
2020,07,26,08,30,20.20
2020,07,26,08,31,20.20
2020,07,26,08,32,20.30
2020,07,26,08,33,20.30
2020,07,26,08,34,20.40
2020,07,26,08,35,20.40
2020,07,26,08,36,20.50
2020,07,26,08,37,20.60
2020,07,26,08,38,20.60
2020,07,26,08,39,20.60
2020,07,26,08,40,20.60
2020,07,26,08,41,20.70
2020,07,26,08,42,20.70
2020,07,26,08,43,20.80
2020,07,26,08,44,20.80
2020,07,26,08,45,20.90
2020,07,26,08,46,20.90
2020,07,26,08,47,20.90
2020,07,26,08,48,20.90
2020,07,26,08,49,21.00
2020,07,26,08,50,21.00
2020,07,26,08,51,21.10
2020,07,26,08,52,21.10
2020,07,26,08,53,21.20
2020,07,26,08,54,21.20
2020,07,26,08,55,21.20
2020,07,26,08,56,21.20
2020,07,26,08,57,21.30
2020,07,26,08,58,21.40
2020,07,26,08,59,21.40
2020,07,26,09,00,21.50
2020,07,26,09,01,21.50
2020,07,26,09,02,21.60
2020,07,26,09,03,21.60
2020,07,26,09,04,21.50
2020,07,26,09,05,21.50
2020,07,26,09,06,21.40
2020,07,26,09,07,21.40
2020,07,26,09,08,21.40
2020,07,26,09,09,21.50
2020,07,26,09,10,21.50
2020,07,26,09,11,21.50
2020,07,26,09,12,21.50
2020,07,26,09,13,21.50
2020,07,26,09,14,21.60
2020,07,26,09,15,21.70
2020,07,26,09,16,21.80
2020,07,26,09,17,21.90
2020,07,26,09,18,21.90
2020,07,26,09,19,22.00
2020,07,26,09,20,22.00
2020,07,26,09,21,22.00
2020,07,26,09,22,22.00
2020,07,26,09,23,22.00
2020,07,26,09,24,22.00
2020,07,26,09,25,22.10
2020,07,26,09,26,22.10
2020,07,26,09,27,22.10
2020,07,26,09,28,22.10
2020,07,26,09,29,22.20
2020,07,26,09,30,22.30
2020,07,26,09,31,22.30
2020,07,26,09,32,22.40
2020,07,26,09,33,22.40
2020,07,26,09,34,22.50
2020,07,26,09,35,22.50
2020,07,26,09,36,22.60
2020,07,26,09,37,22.70
2020,07,26,09,38,22.70
2020,07,26,09,39,22.70
2020,07,26,09,40,22.70
2020,07,26,09,41,22.80
2020,07,26,09,42,22.80
2020,07,26,09,43,22.80
2020,07,26,09,44,22.90
2020,07,26,09,45,22.90
2020,07,26,09,46,23.00
2020,07,26,09,47,23.00
2020,07,26,09,48,23.00
2020,07,26,09,49,22.90
2020,07,26,09,50,22.90
2020,07,26,09,51,22.90
2020,07,26,09,52,23.00
2020,07,26,09,53,23.00
2020,07,26,09,54,23.10
2020,07,26,09,55,23.10
2020,07,26,09,56,23.20
2020,07,26,09,57,23.20
2020,07,26,09,58,23.20
2020,07,26,09,59,23.20
2020,07,26,10,00,23.20
2020,07,26,10,01,23.20
2020,07,26,10,02,23.30
2020,07,26,10,03,23.30
2020,07,26,10,04,23.40
2020,07,26,10,05,23.40
2020,07,26,10,06,23.40
2020,07,26,10,07,23.30
2020,07,26,10,08,23.30
2020,07,26,10,09,23.30
2020,07,26,10,10,23.30
2020,07,26,10,11,23.30
2020,07,26,10,12,23.30
2020,07,26,10,13,23.40
2020,07,26,10,14,23.40
2020,07,26,10,15,23.40
2020,07,26,10,16,23.50
2020,07,26,10,17,23.60
2020,07,26,10,18,23.70
2020,07,26,10,19,23.80
2020,07,26,10,20,23.80
2020,07,26,10,21,23.80
2020,07,26,10,22,23.80
2020,07,26,10,23,23.80
2020,07,26,10,24,23.90
2020,07,26,10,25,23.90
2020,07,26,10,26,23.90
2020,07,26,10,27,23.90
2020,07,26,10,28,23.90
2020,07,26,10,29,23.90
2020,07,26,10,30,23.90
2020,07,26,10,31,24.00
2020,07,26,10,32,24.10
2020,07,26,10,33,24.10
2020,07,26,10,34,24.20
2020,07,26,10,35,24.20
2020,07,26,10,36,24.20
2020,07,26,10,37,24.30
2020,07,26,10,38,24.40
2020,07,26,10,39,24.50
2020,07,26,10,40,24.50
2020,07,26,10,41,24.60
2020,07,26,10,42,24.60
2020,07,26,10,43,24.60
2020,07,26,10,44,24.70
2020,07,26,10,45,24.70
2020,07,26,10,46,24.60
2020,07,26,10,47,24.60
2020,07,26,10,48,24.60
2020,07,26,10,49,24.60
2020,07,26,10,50,24.60
2020,07,26,10,51,24.60
2020,07,26,10,52,24.50
2020,07,26,10,53,24.40
2020,07,26,10,54,24.40
2020,07,26,10,55,24.40
2020,07,26,10,56,24.60
2020,07,26,10,57,24.70
2020,07,26,10,58,24.80
2020,07,26,10,59,24.90
2020,07,26,11,00,24.90
2020,07,26,11,01,25.00
2020,07,26,11,02,25.20
2020,07,26,11,03,25.30
2020,07,26,11,04,25.40
2020,07,26,11,05,25.50
2020,07,26,11,06,25.60
2020,07,26,11,07,25.60
2020,07,26,11,08,25.60
2020,07,26,11,09,25.70
2020,07,26,11,10,25.70
2020,07,26,11,11,25.70
2020,07,26,11,12,25.60
2020,07,26,11,13,25.50
2020,07,26,11,14,25.40
2020,07,26,11,15,25.50
2020,07,26,11,16,25.50
2020,07,26,11,17,25.60
2020,07,26,11,18,25.60
2020,07,26,11,19,25.60
2020,07,26,11,20,25.60
2020,07,26,11,21,25.70
2020,07,26,11,22,25.70
2020,07,26,11,23,25.70
2020,07,26,11,24,25.70
2020,07,26,11,25,25.60
2020,07,26,11,26,25.60
2020,07,26,11,27,25.60
2020,07,26,11,28,25.60
2020,07,26,11,29,25.60
2020,07,26,11,30,25.70
2020,07,26,11,31,25.90
2020,07,26,11,32,25.90
2020,07,26,11,33,25.90
2020,07,26,11,34,26.00
2020,07,26,11,35,26.00
2020,07,26,11,36,26.10
2020,07,26,11,37,26.10
2020,07,26,11,38,26.10
2020,07,26,11,39,26.00
2020,07,26,11,40,26.00
2020,07,26,11,41,25.90
2020,07,26,11,42,25.90
2020,07,26,11,43,25.90
2020,07,26,11,44,25.80
2020,07,26,11,45,25.80
2020,07,26,11,46,25.80
2020,07,26,11,47,25.80
2020,07,26,11,48,25.70
2020,07,26,11,49,25.60
2020,07,26,11,50,25.60
2020,07,26,11,51,25.70
2020,07,26,11,52,25.70
2020,07,26,11,53,25.70
2020,07,26,11,54,25.70
2020,07,26,11,55,25.70
2020,07,26,11,56,25.70
2020,07,26,11,57,25.80
2020,07,26,11,58,25.80
2020,07,26,11,59,25.90
2020,07,26,12,00,25.90
2020,07,26,12,01,26.10
2020,07,26,12,02,26.30
2020,07,26,12,03,26.40
2020,07,26,12,04,26.40
2020,07,26,12,05,26.30
2020,07,26,12,06,26.30
2020,07,26,12,07,26.30
2020,07,26,12,08,26.30
2020,07,26,12,09,26.30
2020,07,26,12,10,26.40
2020,07,26,12,11,26.50
2020,07,26,12,12,26.60
2020,07,26,12,13,26.60
2020,07,26,12,14,26.70
2020,07,26,12,15,26.60
2020,07,26,12,16,26.60
2020,07,26,12,17,26.70
2020,07,26,12,18,26.80
2020,07,26,12,19,26.90
2020,07,26,12,20,26.90
2020,07,26,12,21,26.90
2020,07,26,12,22,26.80
2020,07,26,12,23,26.80
2020,07,26,12,24,26.80
2020,07,26,12,25,26.60
2020,07,26,12,26,26.50
2020,07,26,12,27,26.40
2020,07,26,12,28,26.50
2020,07,26,12,29,26.60
2020,07,26,12,30,26.70
2020,07,26,12,31,26.70
2020,07,26,12,32,26.80
2020,07,26,12,33,26.90
2020,07,26,12,34,26.90
2020,07,26,12,35,26.90
2020,07,26,12,36,27.00
2020,07,26,12,37,27.10
2020,07,26,12,38,27.00
2020,07,26,12,39,27.00
2020,07,26,12,40,26.90
2020,07,26,12,41,26.90
2020,07,26,12,42,26.90
2020,07,26,12,43,27.00
2020,07,26,12,44,27.10
2020,07,26,12,45,27.10
2020,07,26,12,46,27.00
2020,07,26,12,47,27.00
2020,07,26,12,48,27.10
2020,07,26,12,49,27.20
2020,07,26,12,50,27.30
2020,07,26,12,51,27.30
2020,07,26,12,52,27.40
2020,07,26,12,53,27.60
2020,07,26,12,54,27.70
2020,07,26,12,55,27.80
2020,07,26,12,56,27.70
2020,07,26,12,57,27.70
2020,07,26,12,58,27.70
2020,07,26,12,59,27.70
2020,07,26,13,00,27.70
2020,07,26,13,01,27.70
2020,07,26,13,02,27.70
2020,07,26,13,03,27.80
2020,07,26,13,04,27.80
2020,07,26,13,05,27.90
2020,07,26,13,06,27.90
2020,07,26,13,07,27.90
2020,07,26,13,08,27.90
2020,07,26,13,09,27.70
2020,07,26,13,10,27.50
2020,07,26,13,11,27.40
2020,07,26,13,12,27.30
2020,07,26,13,13,27.30
2020,07,26,13,14,27.40
2020,07,26,13,15,27.50
2020,07,26,13,16,27.50
2020,07,26,13,17,27.70
2020,07,26,13,18,27.80
2020,07,26,13,19,27.80
2020,07,26,13,20,27.80
2020,07,26,13,21,27.80
2020,07,26,13,22,27.80
2020,07,26,13,23,27.70
2020,07,26,13,24,27.70
2020,07,26,13,25,27.70
2020,07,26,13,26,27.80
2020,07,26,13,27,27.70
2020,07,26,13,28,27.60
2020,07,26,13,29,27.70
2020,07,26,13,30,27.80
2020,07,26,13,31,28.00
2020,07,26,13,32,28.10
2020,07,26,13,33,28.20
2020,07,26,13,34,28.10
2020,07,26,13,35,28.10
2020,07,26,13,36,28.10
2020,07,26,13,37,28.00
2020,07,26,13,38,28.10
2020,07,26,13,39,28.10
2020,07,26,13,40,28.10
2020,07,26,13,41,28.10
2020,07,26,13,42,28.10
2020,07,26,13,43,28.10
2020,07,26,13,44,28.10
2020,07,26,13,45,28.10
2020,07,26,13,46,28.00
2020,07,26,13,47,28.00
2020,07,26,13,48,28.00
2020,07,26,13,49,28.00
2020,07,26,13,50,27.90
2020,07,26,13,51,27.90
2020,07,26,13,52,27.90
2020,07,26,13,53,28.00
2020,07,26,13,54,28.10
2020,07,26,13,55,28.20
2020,07,26,13,56,28.20
2020,07,26,13,57,28.20
2020,07,26,13,58,28.20
2020,07,26,13,59,28.20
2020,07,26,14,00,28.30
2020,07,26,14,01,28.40
2020,07,26,14,02,28.50
2020,07,26,14,03,28.60
2020,07,26,14,04,28.70
2020,07,26,14,05,28.80
2020,07,26,14,06,29.00
2020,07,26,14,07,29.00
2020,07,26,14,08,28.90
2020,07,26,14,09,28.80
2020,07,26,14,10,28.70
2020,07,26,14,11,28.50
2020,07,26,14,12,28.50
2020,07,26,14,13,28.60
2020,07,26,14,14,28.70
2020,07,26,14,15,28.80
2020,07,26,14,16,28.90
2020,07,26,14,17,29.10
2020,07,26,14,18,29.20
2020,07,26,14,19,29.10
2020,07,26,14,20,29.10
2020,07,26,14,21,29.10
2020,07,26,14,22,29.10
2020,07,26,14,23,29.10
2020,07,26,14,24,29.00
2020,07,26,14,25,29.10
2020,07,26,14,26,29.00
2020,07,26,14,27,29.00
2020,07,26,14,28,29.00
2020,07,26,14,29,29.00
2020,07,26,14,30,29.10
2020,07,26,14,31,29.10
2020,07,26,14,32,29.20
2020,07,26,14,33,29.20
2020,07,26,14,34,29.20
2020,07,26,14,35,29.20
2020,07,26,14,36,29.10
2020,07,26,14,37,29.10
2020,07,26,14,38,28.90
2020,07,26,14,39,28.80
2020,07,26,14,40,28.80
2020,07,26,14,41,28.70
2020,07,26,14,42,28.80
2020,07,26,14,43,28.80
2020,07,26,14,44,28.80
2020,07,26,14,45,28.80
2020,07,26,14,46,28.70
2020,07,26,14,47,28.60
2020,07,26,14,48,28.50
2020,07,26,14,49,28.40
2020,07,26,14,50,28.30
2020,07,26,14,51,28.30
2020,07,26,14,52,28.30
2020,07,26,14,53,28.40
2020,07,26,14,54,28.50
2020,07,26,14,55,28.60
2020,07,26,14,56,28.70
2020,07,26,14,57,28.80
2020,07,26,14,58,29.00
2020,07,26,14,59,29.20
2020,07,26,15,00,29.40
2020,07,26,15,01,29.40
2020,07,26,15,02,29.60
2020,07,26,15,03,29.70
2020,07,26,15,04,29.70
2020,07,26,15,05,29.60
2020,07,26,15,06,29.50
2020,07,26,15,07,29.40
2020,07,26,15,08,29.40
2020,07,26,15,09,29.40
2020,07,26,15,10,29.40
2020,07,26,15,11,29.40
2020,07,26,15,12,29.40
2020,07,26,15,13,29.40
2020,07,26,15,14,29.30
2020,07,26,15,15,29.40
2020,07,26,15,16,29.40
2020,07,26,15,17,29.50
2020,07,26,15,18,29.60
2020,07,26,15,19,29.60
2020,07,26,15,20,29.60
2020,07,26,15,21,29.70
2020,07,26,15,22,29.70
2020,07,26,15,23,29.80
2020,07,26,15,24,29.80
2020,07,26,15,25,29.80
2020,07,26,15,26,29.80
2020,07,26,15,27,29.70
2020,07,26,15,28,29.60
2020,07,26,15,29,29.50
2020,07,26,15,30,29.40
2020,07,26,15,31,29.50
2020,07,26,15,32,29.70
2020,07,26,15,33,29.90
2020,07,26,15,34,30.10
2020,07,26,15,35,30.20
2020,07,26,15,36,30.40
2020,07,26,15,37,30.50
2020,07,26,15,38,30.60
2020,07,26,15,39,30.60
2020,07,26,15,40,30.50
2020,07,26,15,41,30.40
2020,07,26,15,42,30.20
2020,07,26,15,43,30.10
2020,07,26,15,44,30.00
2020,07,26,15,45,30.00
2020,07,26,15,46,30.00
2020,07,26,15,47,30.00
2020,07,26,15,48,29.90
2020,07,26,15,49,29.90
2020,07,26,15,50,29.90
2020,07,26,15,51,29.90
2020,07,26,15,52,30.00
2020,07,26,15,53,30.00
2020,07,26,15,54,30.00
2020,07,26,15,55,30.00
2020,07,26,15,56,30.00
2020,07,26,15,57,30.00
2020,07,26,15,58,30.00
2020,07,26,15,59,30.00
2020,07,26,16,00,29.90
2020,07,26,16,01,29.80
2020,07,26,16,02,29.60
2020,07,26,16,03,29.50
2020,07,26,16,04,29.30
2020,07,26,16,05,29.10
2020,07,26,16,06,28.80
2020,07,26,16,07,28.70
2020,07,26,16,08,28.70
2020,07,26,16,09,28.70
2020,07,26,16,10,28.70
2020,07,26,16,11,28.80
2020,07,26,16,12,28.80
2020,07,26,16,13,28.70
2020,07,26,16,14,28.70
2020,07,26,16,15,28.70
2020,07,26,16,16,28.80
2020,07,26,16,17,28.90
2020,07,26,16,18,28.80
2020,07,26,16,19,28.80
2020,07,26,16,20,28.80
2020,07,26,16,21,28.80
2020,07,26,16,22,28.70
2020,07,26,16,23,28.70
2020,07,26,16,24,28.70
2020,07,26,16,25,28.70
2020,07,26,16,26,28.60
2020,07,26,16,27,28.50
2020,07,26,16,28,28.30
2020,07,26,16,29,28.20
2020,07,26,16,30,28.20
2020,07,26,16,31,28.20
2020,07,26,16,32,28.10
2020,07,26,16,33,28.20
2020,07,26,16,34,28.30
2020,07,26,16,35,28.40
2020,07,26,16,36,28.50
2020,07,26,16,37,28.70
2020,07,26,16,38,28.90
2020,07,26,16,39,29.00
2020,07,26,16,40,29.20
2020,07,26,16,41,29.30
2020,07,26,16,42,29.30
2020,07,26,16,43,29.30
2020,07,26,16,44,29.40
2020,07,26,16,45,29.50
2020,07,26,16,46,29.50
2020,07,26,16,47,29.50
2020,07,26,16,48,29.40
2020,07,26,16,49,29.10
2020,07,26,16,50,28.80
2020,07,26,16,51,28.70
2020,07,26,16,52,28.60
2020,07,26,16,53,28.60
2020,07,26,16,54,28.60
2020,07,26,16,55,28.70
2020,07,26,16,56,28.70
2020,07,26,16,57,28.70
2020,07,26,16,58,28.60
2020,07,26,16,59,28.60
2020,07,26,17,00,28.50
2020,07,26,17,01,28.40
2020,07,26,17,02,28.40
2020,07,26,17,03,28.30
2020,07,26,17,04,28.30
2020,07,26,17,05,28.30
2020,07,26,17,06,28.30
2020,07,26,17,07,28.30
2020,07,26,17,08,28.30
2020,07,26,17,09,28.30
2020,07,26,17,10,28.30
2020,07,26,17,11,28.20
2020,07,26,17,12,28.20
2020,07,26,17,13,28.20
2020,07,26,17,14,28.20
2020,07,26,17,15,28.20
2020,07,26,17,16,28.00
2020,07,26,17,17,27.90
2020,07,26,17,18,27.90
2020,07,26,17,19,27.90